Terminal Aerodrome Forecast
Issued by NWS Chicago, IL

Home | Current Version | Previous Version | Text Only | Print | Product List | Glossary On
Versions: 1 2 3 4 5 6 7 8 9 10 11 12 13 14 15 16 17 18 19 20 21 22 23 24 25 26
000
FTUS43 KLOT 092058 AAA
TAFRFD
TAF AMD
KRFD 092058Z 0921/1018 32014G21KT 6SM -SHSN BKN025 BKN035
      TEMPO 0921/1001 3SM -SHSN BKN020
     FM100200 32013G20KT P6SM BKN035 OVC050
     FM101300 33012KT P6SM SCT020 BKN250=

USA.gov is the U.S. government's official web portal to all federal, state and local government web resources and services.